Погода в Бажын-Алааке

Россия / Республика Тыва     51°13′49″N   91°43′59″E
темп.,
°C
ветер,
м/с
пор.,
м/с
влажн.,
%
обл.,
%
осадки,
мм/ч
давл.,
гПа
погр.,
м
25 января, пн
пн2501:00−21з0085100 0.0 103520
04:00−22з0186100 0.0 103520
07:00−23ю1194100 0.0 103720
10:00−22ююз0089100 0.0 103920
13:00−19сз1190100 0.1 1039191
16:00−20с019699 0.0 103923
19:00−25юв129062 0.0 104220
22:00−26ююв018191 0.0 104120
26 января, вт
вт2601:00−26св008696 0.0 104019
04:00−26вюв0087100 0.0 103919
07:00−26сз0188100 0.0 103819
10:00−24юз0096100 0.1 103831
13:00−21сз1190100 0.1 1037163
16:00−21сз1193100 0.0 103733
19:00−24ююв1187100 0.0 104020
22:00−27ююз118685 0.0 104220
27 января, ср
ср2701:00−28ю118351 0.0 104320
04:00−28ю11790 0.0 104519
07:00−29юв00770 0.0 104519
10:00−24ссз118292 0.0 104434
13:00−21ссз217696 0.0 1041154
16:00−20сз2282100 0.0 1040105
19:00−22ссз1181100 0.0 104120
22:00−22ссз1184100 0.0 104120
28 января, чт
чт2801:00−24ссз118989 0.0 104020
04:00−23ссз119074 0.0 104020
07:00−21с118787 0.0 103920
10:00−18ссз1184100 0.0 103936
13:00−15сз228195 0.0 1037118
16:00−14сз2287100 0.0 103572
19:00−18ссз118596 0.0 103720
22:00−17сз118595 0.0 103720
29 января, пт
пт2901:00−19з008992 0.0 103720
04:00−18сз119090 0.0 103620
07:00−16ю118795 0.0 103521
10:00−13ююз018590 0.0 103430
13:00−11сз218495 0.0 103283
16:00−9ю1182100 0.0 103029
19:00−9ююз2278100 0.0 103222
22:00−9ююз2276100 0.0 103122